Retour au catalogue

STARLINK-3112

ActifCommunicationsVLEO
NORAD 49421·PAYLOAD·🇺🇸 United States

Lancé Nov 13, 2021 depuis Cape Canaveral Space Force Station

Loading…

Prochains Passages (prochaines 24 heures)

TLE

FraisSource: CelesTrak SupGP

Époque: Sep 15, 2026, 02:10 UTC

1 49421C 21104P   26258.09076389 -.00013550  00000+0 -43580-3 0  2589
2 49421  53.1574  86.0021 0001235  83.2327 214.4988 15.31703279    15

Suivez STARLINK-3112 en temps réel avec AllMySat

Download on the App Store